Regional Weather Roundup
Issued by NWS Albany, NY

Home | Current Version | Previous Version | Text Only | Print | Product List | Glossary On
Versions: 1 2 3 4 5 6 7 8 9 10 11 12 13 14 15 16 17 18 19 20 21 22 23 24 25 26 27 28
000
ASUS41 KALY 252110
RWRALY

NEW YORK STATE HOURLY WEATHER ROUNDUP
NATIONAL WEATHER SERVICE ALBANY NY
500 PM EDT THU MAY 25 2017

NOTE: "FAIR" INDICATES FEW OR NO CLOUDS BELOW 12,000 FEET WITH NO
SIGNIFICANT WEATHER AND/OR NO OBSTRUCTIONS TO VISIBILITY.

NYZ032-033-038>043-046>054-057>066-NYZ062>081-082-084-252200-
EAST


CITY           SKY/WX    TMP DP  RH WIND       PRES   REMARKS
ALBANY         LGT RAIN  58  55  90 N3        29.62F FOG
GLENS FALLS    NOT AVBL
POUGHKEEPSIE   LGT RAIN  59  57  93 NE5       29.57F FOG
NEWBURGH       DRIZZLE   59  59 100 E13       29.59S FOG
MONTGOMERY     LGT RAIN  60  58  92 NE8       29.56F FOG
WHITE PLAINS   LGT RAIN  57  55  93 E9G25     29.56F VSB 1
ISLIP          DRZL/FOG  59  59 100 E13       29.55F VSB 1
NEW YORK CITY  CLOUDY    57  56  96 NE20      29.53F FOG
CENTRAL PARK   CLOUDY    58  57  97 NE10G20   29.56F FOG
$$

NYZ005>009-017-018-044>046-055-056-252200-
CENTRAL


CITY           SKY/WX    TMP DP  RH WIND       PRES   REMARKS
FULTON         CLOUDY    58  55  90 VRB6      29.53F
SYRACUSE       CLOUDY    57  55  93 NE8       29.52F FOG
ROME           CLOUDY    57  54  89 SE15      29.56F
ELMIRA         CLOUDY    63  57  81 SE8       29.48F
BINGHAMTON     CLOUDY    58  54  86 SE10      29.51F
MONTICELLO     CLOUDY    55  54  94 E14       29.57F
$$

NYZ026>034-041>043-087-252200-
NORTH


CITY           SKY/WX    TMP DP  RH WIND       PRES   REMARKS
WATERTOWN      RAIN      56  56 100 NE9       29.56F FOG
FORT DRUM      NOT AVBL
OGDENSBURG     LGT RAIN  57  55  92 NE14      29.62F
MASSENA        RAIN      58  55  90 NE15G24   29.67F
SARANAC LAKE   LGT RAIN  53  51  93 E12       29.65F
PLATTSBURGH    LGT RAIN  58  52  80 SE8       29.71F
$$

NYZ001>004-010>016-019>021-085-252200-
WEST


CITY           SKY/WX    TMP DP  RH WIND       PRES   REMARKS
NIAGARA FALLS  LGT RAIN  60  56  86 NE10      29.46S FOG
BUFFALO        LGT RAIN  62  58  86 CALM      29.46S
DUNKIRK        LGT RAIN  58  57  97 N7        29.46S FOG
JAMESTOWN      CLOUDY    57  52  82 SW12      29.48S
WELLSVILLE     CLOUDY    62  55  77 SE5       29.49F
ROCHESTER      DRIZZLE   62  57  83 E8        29.49F
PENN YAN       CLOUDY    62  55  77 SE7       29.50F
$$

             KEY
       WCI = WIND CHILL INDEX
       VSB = VISIBILITY
       HX  = HEAT INDEX
$$




USA.gov is the U.S. government's official web portal to all federal, state and local government web resources and services.